Regional Weather Roundup
Issued by NWS

Home | Current Version | Previous Version | Text Only | Print | Product List | Glossary Off
Versions: 1 2 3 4 5 6 7 8 9 10 11 12 13 14 15 16 17 18 19 20 21 22 23 24 25 26 27 28 29 30 31 32 33 34 35 36 37 38 39 40 41 42 43 44 45 46 47 48 49 50

000
ASUS43 KMPX 180010
RWRMN
WEATHER ROUNDUP FOR MINNESOTA
NATIONAL WEATHER SERVICE TWIN CITIES/CHANHASSEN MN
700 PM CDT WED SEP 17 2014


NOTE: "FAIR" INDICATES FEW OR NO CLOUDS BELOW 12,000 FEET WITH NO
SIGNIFICANT WEATHER AND/OR OBSTRUCTIONS TO VISIBILITY. N/A MEANS
CURRENT SKY AND/OR WEATHER CONDITIONS ARE NOT AVAILABLE.

MNZ060>063-068>070-180100-
   Twin Cities Metro

CITY           SKY/WX    TMP DP  RH WIND       PRES   REMARKS
TWIN CITIES    PTCLDY    70  53  54 E7        29.95R
6HR MIN TEMP:  69; 6HR MAX TEMP:  77;

ST PAUL        CLEAR     69  53  56 E3        29.96R
CRYSTAL        CLEAR     70  53  54 E3        29.94R
BLAINE         CLEAR     70  55  60 CALM        N/A
LAKEVILLE      MOCLDY    64  55  72 CALM      29.95S HAZE
EDEN PRAIRIE     N/A    N/A N/A N/A MISG        N/A
SOUTH ST PAUL  CLEAR     70  53  55 CALM      29.95R
LAKE ELMO      FAIR      68  54  60 CALM      29.97R
$$
MNZ001>005-007-008-013>017-022>024-027-028-180100-
   Northwest Minnesota

CITY           SKY/WX    TMP DP  RH WIND       PRES   REMARKS
BEMIDJI        CLEAR     59  49  68 N7        30.02R
HALLOCK        CLEAR     57  45  62 NE10      30.05R
ROSEAU         PTCLDY    48  39  71 E14       30.09R
WARROAD        CLOUDY    48  43  81 NE13      30.10R
THIEF RVR FALL CLEAR     57  45  62 N10       30.03S
CROOKSTON      CLEAR     61  48  63 NE6       30.02R
FOSSTON        CLEAR     61  46  59 NE5       30.02S
DETROIT LAKES  CLEAR     68  52  56 N3        29.99R
MOORHEAD       CLEAR     68  54  60 N7        29.98R
PARK RAPIDS    CLEAR     66  50  56 NE7       29.98R
MAHNOMEN       FAIR      61  50  66 NE9       30.00R
$$
MNZ006-009>011-018-025>026-180100-
   North Central Minnesota

CITY           SKY/WX    TMP DP  RH WIND       PRES   REMARKS
BAUDETTE       CLEAR     47  39  74 NE7       30.09R
FLAG ISLAND    MOCLDY    46  36  66 NE7       30.09S
INTL FALLS     CLOUDY    48  38  68 NE7       30.09R
6HR MIN TEMP:  48; 6HR MAX TEMP:  55;

WASKISH        CLEAR     54  45  71 NE6       30.06R
BIG FORK       CLEAR     55  45  67 N6        30.05R
LONGVILLE      CLEAR     61  52  72 N5        30.00R
GRAND RAPIDS   CLEAR     61  48  63 N3        30.01S
CRANE LAKE     CLOUDY    48  41  76 CALM      30.10R
ORR            CLEAR     50  39  66 CALM      30.04R
COOK           CLOUDY    52  45  76 E7        30.07R
WALKER         FAIR      59  50  72 NE3       30.00R
$$
MNZ012-019>021-037-180100-
   Northeast Minnesota

CITY           SKY/WX    TMP DP  RH WIND       PRES   REMARKS
DULUTH         CLOUDY    45  40  82 E16       30.06R
6HR MIN TEMP:  45; 6HR MAX TEMP:  69;

ELY            DRIZZLE   46  43  87 E5        30.08S
HIBBING        CLOUDY    52  44  74 E7        30.05R
EVELETH        CLOUDY    50  45  81 E8        30.07R
DULUTH HARBOR  CLOUDY    50  45  81 NE25      30.08R
TWO HARBORS    CLOUDY    45  37  76 E10       30.07S
SILVER BAY     PTCLDY    43  43 100 NE7       30.09R
GRAND MARAIS     N/A     44  40  85 NE7       30.12R
G MARAIS ARPRT CLOUDY    37  36  93 E5        30.10R
$$
MNZ029>031-032-039>041-046>048-054>057-064-180100-
   West Central Minnesota

CITY           SKY/WX    TMP DP  RH WIND       PRES   REMARKS
FERGUS FALLS   CLEAR     70  43  37 CALM      29.96S
WHEATON        CLEAR     66  52  59 NE5       29.97R
MORRIS         CLEAR     70  54  56 E3        29.95R
ALEXANDRIA     CLEAR     69  52  54 NE5       29.98S
ELBOW LAKE     FAIR      68  53  58 NE3       29.96S
WADENA         CLEAR     64  54  68 CALM      29.96S
GLENWOOD       CLEAR     68  54  60 E3        29.98R
APPLETON       CLEAR     70  57  64 CALM      29.94S
BENSON         PTCLDY    70  54  56 CALM      29.95R
ORTONVILLE     CLEAR     70  54  56 N5        29.95S
MADISON        CLEAR     70  59  68 NE3       29.95R
WILLMAR        FAIR      66  55  68 NE5       29.97R
$$
MNZ033>034-036-042>043-049>051-058-059-180100-
   Central Minnesota

CITY           SKY/WX    TMP DP  RH WIND       PRES   REMARKS
ST CLOUD       CLEAR     71  55  56 CALM      29.96R
6HR MIN TEMP:  71; 6HR MAX TEMP:  77;

SAUK CENTRE    FAIR      67  53  61 NE3       29.97R
PAYNESVILLE    CLEAR     66  52  59 N3        29.97R
AITKIN         CLEAR     64  54  68 NE8       29.98R
PINE RIVER     CLEAR     64  54  68 N5        30.01S
BRAINERD       CLEAR     65  53  65 N3        29.97S
STAPLES        CLEAR     70  46  43 CALM      29.97R
LONG PRAIRIE   FAIR      66  52  59 CALM      29.97S
LITTLE FALLS   CLEAR     64  55  72 CALM      29.97R
LITCHFIELD     CLEAR     68  57  68 CALM      29.96S
BUFFALO        CLEAR     69  55  59 CALM      29.97R
MAPLE LAKE     CLEAR     68  58  70 CALM      29.97R
$$
MNZ037-044-045-052-053-180100-
   East Central Minnesota

CITY           SKY/WX    TMP DP  RH WIND       PRES   REMARKS
PRINCETON      CLEAR     72  54  53 NE1       29.96S
MORA           CLEAR     64  55  72 CALM      29.98R
CAMBRIDGE      CLEAR     68  54  60 CALM      29.94S
RUSH CITY      CLEAR     64  56  75 CALM      29.96R
MOOSE LAKE     CLOUDY    46  43  87 NE9G17    30.02R
HINCKLEY       FAIR      55  50  82 N10G16    29.99R
CLOQUET        CLOUDY    46  41  81 NE13      30.05R
MCGREGOR       PTCLDY    52  46  82 E9G18     30.02R
$$
MNZ071>073-080-081-089-090-097-098-180100-
   Southwest Minnesota

CITY           SKY/WX    TMP DP  RH WIND       PRES   REMARKS
MONTEVIDEO     MOCLDY    75  55  50 CALM      29.95S
GRANITE FALLS  CLEAR     71  55  56 CALM      29.96R
CANBY          CLEAR     70  56  61 N3        29.96R
MARSHALL       CLEAR     72  52  49 E6        29.94R
REDWOOD FALLS  CLEAR     72  54  53 CALM      29.94R
OLIVIA         CLEAR     72  52  49 CALM      29.94S
PIPESTONE      CLEAR     70  55  60 E5        29.96R
WINDOM         PTCLDY    70  57  64 NE3       29.95R
WORTHINGTON    CLOUDY    72  55  56 NE7       29.95R
JACKSON        MOCLDY    72  55  56 NE5       29.96R
TRACY          CLEAR     71  56  60 CALM      29.96R
SLAYTON        CLEAR     68  55  62 CALM      29.96S
$$
MNZ065>067-074>077-082>085-091>093-180100-
   South Central Minnesota

CITY           SKY/WX    TMP DP  RH WIND       PRES   REMARKS
MANKATO        CLEAR     72  52  49 E5        29.94S
NEW ULM        CLEAR     72  54  53 E3        29.94S
ST JAMES       CLEAR     72  55  56 CALM      29.95R
FAIRMONT       MOCLDY    70  50  49 NE5       29.94S
GLENCOE        CLEAR     69  54  57 CALM      29.95R
FARIBAULT      CLEAR     70  55  60 CALM      29.96R
OWATONNA       CLEAR     70  54  56 CALM      29.96R
WASECA         CLEAR     64  50  59 NE3       29.96S
ALBERT LEA     CLEAR     68  54  60 SE5       29.95S HAZE
$$
MNZ078>079-086>088-094>096-180100-
   Southeast Minnesota

CITY           SKY/WX    TMP DP  RH WIND       PRES   REMARKS
ROCHESTER      CLEAR     64  54  69 E5        29.97S
6HR MIN TEMP:  64; 6HR MAX TEMP:  73;

RED WING       CLEAR     66  57  72 CALM      29.94R
STANTON        CLEAR     68  55  61 E3        29.94R
DODGE CENTER   CLEAR     66  55  68 E3        29.97R
WINONA         CLEAR     66  55  68 CALM      29.96S
AUSTIN         PTCLDY    66  54  63 CALM      29.96R
PRESTON        CLEAR     66  57  72 SE3       29.98S
$$
ABBREVIATIONS USED IN REMARKS
   TC - TEMPERATURES IN CELSIUS
  WCI - WIND CHILL INDEX
   HX - HEAT INDEX
  VSB - VISIBILITY
$$


USA.gov is the U.S. government's official web portal to all federal, state and local government web resources and services.